Regional Weather Roundup
Issued by NWS

Home | Current Version | Previous Version | Graphics & Text | Print | Product List | Glossary On
Versions: 1 2 3 4 5 6 7 8 9 10 11 12 13 14 15 16 17 18 19 20 21 22 23 24 25 26 27 28
000
ASUS45 KTFX 241910
RWRMT
MONTANA REGIONAL WEATHER ROUNDUP
NATIONAL WEATHER SERVICE GREAT FALLS MT
100 PM MDT SAT SEP 24 2016

NOTE: "FAIR" INDICATES FEW OR NO CLOUDS BELOW 12000 FEET WITH NO
SIGNIFICANT WEATHER AND/OR OBSTRUCTIONS TO VISIBILITY.

MTZ001>007-043-242000-
WEST OF THE DIVIDE

CITY           SKY/WX    TMP DP  RH WIND       PRES   REMARKS
KALISPELL      PTSUNNY   58  39  49 VRB6      30.22F
MISSOULA       CLOUDY    61  37  41 NW14G25   30.26S
BUTTE          PTSUNNY   51  31  46 NW14G24   30.22F
MULLAN PASS    CLOUDY    40  39  97 VRB5      30.31R FOG
ANACONDA         N/A     54  30  40 W17G26    30.21F
DEER LODGE       N/A     54  30  40 NW18G28   30.24F
EUREKA           N/A     63  37  39 SE6       30.20F
HAMILTON         N/A     55  36  47 W5        30.29R
LIBBY            N/A     63  37  39 N7        30.22F
PLAINS           N/A     63  37  37 NW9       30.24F
RONAN            N/A     59  41  51 S3        30.27F
$$

MTZ008-052>055-242000-
SOUTHWEST MONTANA

CITY           SKY/WX    TMP DP  RH WIND       PRES   REMARKS
BOZEMAN        CLOUDY    57  36  45 NW20G29   30.15S
DILLON         CLOUDY    53  33  46 SW7       30.20S
W YELLOWSTONE  CLOUDY    48  27  43 N7        30.19R
ENNIS          CLOUDY    54  32  43 N10       30.23S
THREE FORKS      N/A     59  11  15 W17       30.13S
TWIN BRIDGES     N/A     57  29  34 SE5       30.16S
$$

MTZ009-010-012-014-046-048-049-054-242000-
EAST SLOPES AND CENTRAL MONTANA

CITY           SKY/WX    TMP DP  RH WIND       PRES   REMARKS
CUT BANK       CLOUDY    57  35  43 NW18G28   30.13R
GREAT FALLS    MOSUNNY   60  34  37 NW18G31   30.10S
MALMSTROM AFB  MOSUNNY   61  36  39 NW21G30   30.10S
HELENA         MOSUNNY   62  32  32 W21G28    30.15S
AUGUSTA          N/A     58  31  35 NW18G24   30.14S
BOWMANS CRNR   MOCLDY    56  29  34 NW15G28   30.13R
CHOTEAU          N/A     61  34  36 NW14G22   30.15R
CONRAD           N/A     61  43  51 W15       30.13R
FAIRFIELD      MOCLDY    59  35  41 NW17G28   30.12R
POWER            N/A     59  34  38 NW25G35   30.11R
RAYNESFORD     MOCLDY    57  34  42 NW21G28   30.10S
$$

MTZ011-013-016-021-045-047-050-051-242000-
NORTH CENTRAL MONTANA

CITY           SKY/WX    TMP DP  RH WIND       PRES   REMARKS
HAVRE          SUNNY     64  46  52 NW21G32   29.98S
LEWISTOWN      CLOUDY    57  37  47 NW22G41   30.03F
N BAR RANCH      N/A     54  37  54 NW35G46   29.99S
CHINOOK          N/A     64  45  48 NW20G26   29.95F
DENTON           N/A     60  39  45 NW35G40   30.01S
GEYSER           N/A     58  31  35 NW18G24   30.14S
GRASS RANGE      N/A     57  39  51 W38G48    29.96S
JUDITH GAP       N/A     55  36  48 N36G61    30.03R
ROY              N/A     58  42  56 MISG      29.95S
STANFORD       MOCLDY    56  37  49 NW28G38   30.08R
WINIFRED         N/A     58  40  50 MISG      30.01F
$$

MTZ017>020-022>027-061-062-242000-
NORTHEAST MONTANA

CITY           SKY/WX    TMP DP  RH WIND       PRES   REMARKS
GLASGOW        LGT RAIN  51  49  92 NW14      29.88R FOG
JORDAN           N/A     50  47  89 NW16G25   29.87S
SIDNEY         LGT RAIN  56  54  93 N20       29.72F FOG
WOLF POINT     CLOUDY    58  52  80 NW14      29.82R
PLENTYWOOD       N/A    N/A N/A N/A NW15G22   29.79F
POPLAR           N/A     54  52  94 NW17      29.80F
SCOBEY           N/A     52  47  83 N14       29.83S
$$

MTZ028>42-056>058-242000-
SOUTHCENTRAL AND SOUTHEAST MONTANA

CITY           SKY/WX    TMP DP  RH WIND       PRES   REMARKS
BAKER          LGT RAIN  55  53  93 NW20      29.72S FOG
BILLINGS       CLOUDY    57  39  51 NW26G35   29.99R
LIVINGSTON     CLOUDY    52  36  54 W15       30.13R
MILES CITY     LGT RAIN  50  48  93 NW20G28   29.84S FOG
BIG TIMBER     CLOUDY    52  37  58 W32G38    30.11R
EKALAKA          N/A     51  49  93 NW17      29.76S
FORSYTH          N/A     48  48 100 W16G23    29.89S
HARLOWTON      MOCLDY    57  33  39 N29G36    30.04S
LAUREL           N/A     59  39  47 W18       30.00R
ROUNDUP          N/A     58  38  47 W25       29.87S
$$

REGIONAL REPORTS...DAKOTAS

CITY           SKY/WX    TMP DP  RH WIND       PRES   REMARKS
WILLISTON      CLOUDY    57  55  93 N16       29.72S FOG
MINOT          CLOUDY    74  64  71 E12       29.69F
DICKINSON      PTSUNNY   68  57  68 S17       29.67S
CROSBY         LGT RAIN  55  55 100 N15G22    29.76F VSB 1
WATFORD CITY   LGT RAIN  57  57 100 N9        29.71S VSB 3/4
BISMARCK       MOSUNNY   77  60  55 S21G30    29.71R
GRAND FORKS    LGT RAIN  76  66  71 SE21G30   29.82F
FARGO          MOSUNNY   79  65  62 SE24G32   29.83F
BUFFALO SD       N/A     63  50  62 SW24G30   29.67R
RAPID CITY     MOSUNNY   65  43  44 W12G18    29.84R
$$

REGIONAL REPORTS...WYOMING/IDAHO/WASHINGTON

CITY           SKY/WX    TMP DP  RH WIND       PRES   REMARKS
GILLETTE       LGT RAIN  44  41  89 NW26G38   29.95R
SHERIDAN       LGT RAIN  46  43  89 NW10      30.03R
BUFFALO WY     LGT RAIN  42  38  85 N22G30    30.02R
CODY           LGT RAIN  47  42  83 S6        30.07R
YELLOWSTONE LA   N/A     42  35  76 VRB6      30.21R
IDAHO FALLS    PTSUNNY   56  45  66 SW18      30.21R
SALMON         PTSUNNY   57  32  38 N8        30.25S
BOISE          SUNNY     62  38  40 W14G21    30.28F
SPOKANE        MOSUNNY   59  41  51 SW9       30.32R
$$

REGIONAL REPORTS...ALBERTA

CITY           SKY/WX    TMP DP  RH WIND       PRES   REMARKS
EDMONTON       SUNNY     57  34  41 W14G25    30.05S
CALGARY        MOSUNNY   55  34  44 N12G18    30.14S
LETHBRIDGE     PTSUNNY   57  43  58 N9G23     30.14R
MEDICINE HAT   PTSUNNY   55  46  71 NW20G30   30.06R
WATERTON GATE    N/A     54  36  50 SW14        N/A
CARDSTON         N/A     57  39  51 N10G17      N/A
MILK RIVER       N/A     55  45  67 N17G25      N/A
ONEFOUR          N/A     59  48  67 NW22G29     N/A
$$

REGIONAL REPORTS...SASKATCHEWAN

CITY           SKY/WX    TMP DP  RH WIND       PRES   REMARKS
SWIFT CURRENT  CLOUDY    48  48 100 NW15      29.96R
REGINA         LGT RAIN  54  52  94 NW15G22   29.85S
SASKATOON      CLOUDY    54  50  87 NW10      29.93R
CYPRESS HILLS    N/A     46  43  87 NW7         N/A
VAL MARIE        N/A     52  46  82 N18G25      N/A
ROCKGLEN         N/A     50  48  93 NW16        N/A
ASSINIBOIA       N/A     57  34  41 W24G35      N/A
$$




USA.gov is the U.S. government's official web portal to all federal, state and local government web resources and services.